Location: Fornova de Taro
(44.7000°N, 10.1000°E)
Time: 02:59:02
(UTC+00:00)

Lacrosse 5 rocket - Pass Details

Date: 26 May 2022
Orbit: 457 x 629 km, 57.0° (Epoch: 26 June)

Event Time Altitude Azimuth Distance (km) Brightness Sun altitude
Exits shadow 02:57:20 - 265° (W) 2,163 3.9 -7.2°
Reaches altitude 10° 02:58:31 10° 273° (W) 1,742 3.4 -7.0°
Maximum altitude 03:01:57 28° 334° (NNW) 1,020 2.8 -6.6°
Drops below altitude 10° 03:05:35 10° 35° (NE) 1,843 5.5 -6.1°
Sets 03:08:09 0° 47° (NE) 2,776 7.5 -5.7°
